Location: Killam
(52.7910°N, 111.8608°W)
Time: 12:30:19
(UTC+00:00)

METEOR M2 - Pass Details

Date: 15 March 2026
Orbit: 817 x 824 km, 98.5° (Epoch: 14 April)

Event Time Altitude Azimuth Distance (km) Brightness Sun altitude
Rises 11:24:17 0° 19° (NNE) 3,375 ? -20.9°
Reaches altitude 10° 11:26:46 10° 25° (NNE) 2,437 ? -20.6°
Maximum altitude 11:31:55 45° 98° (E) 1,123 ? -19.9°
Drops below altitude 10° 11:37:03 10° 170° (S) 2,420 ? -19.2°
Sets 11:39:29 0° 177° (S) 3,347 ? -18.9°
